Flag for USA

Past Weather in Oklahoma City, Oklahoma, USA — July 2018

Now
94 °F

Scattered clouds.


Feels Like: 97 °F
Forecast: 97 / 77 °F
Wind: 6 mph from North

Location: Will Rogers World Airport

Current Time: Jul 2, 2020 at 3:11:17 pm

Latest Report: Jul 2, 2020 at 1:52 pm


Visibility: 10 mi

Pressure: 29.90 "Hg

Humidity: 40%

Dew Point: 66 °F

Location of Oklahoma CityLocation

July 2018 Weather in Oklahoma City — Graph

°F

High & Low Weather Summary for July 2018

 TemperatureHumidityPressure
High109 °F (Jul 20, 3:52 pm)100% (Jul 19, 6:52 am)30.27 "Hg (Jul 19, 6:52 am)
Low63 °F (Jul 31, 6:52 am)15% (Jul 20, 3:52 pm)29.72 "Hg (Jul 19, 6:52 pm)
Average82 °F63%29.99 "Hg
* Reported Jul 1 12:52 am — Jul 31 11:52 pm, Oklahoma City. Weather by CustomWeather, © 2020

Note: Actual official high and low records may vary slightly from our data, if they occured in-between our weather recording intervals... More about our weather records

Oklahoma City Weather History for July 1, 2018

Scroll right to see more
 ConditionsComfort  
Time TempWeatherWind HumidityBarometerVisibility
12:52 am
Sun, Jul 1
71 °FPassing clouds.12 mph93%29.78 "Hg10 mi
1:52 am72 °FPassing clouds.8 mph87%29.79 "Hg10 mi
2:52 am72 °FPassing clouds.8 mph87%29.78 "Hg10 mi
3:52 am72 °FPassing clouds.10 mph87%29.78 "Hg10 mi
4:52 am72 °FPassing clouds.7 mph87%29.81 "Hg10 mi
5:52 am72 °FPassing clouds.6 mph87%29.82 "Hg10 mi
6:52 am73 °FThunderstorms. Partly sunny.5 mph84%29.86 "Hg8 mi
7:52 am75 °FThunderstorms. Broken clouds.5 mph79%29.89 "Hg8 mi
8:52 am77 °FThunderstorms. Broken clouds.7 mph77%29.90 "Hg9 mi
9:52 am75 °FLight rain. Mostly cloudy.10 mph85%29.91 "Hg7 mi
10:52 am78 °FMostly cloudy.10 mph76%29.91 "Hg9 mi
11:52 am78 °FPartly sunny.10 mph82%29.91 "Hg9 mi
12:52 pm79 °FMostly cloudy.9 mph82%29.90 "Hg9 mi
1:52 pm83 °FOvercast.7 mph74%29.91 "Hg9 mi
2:13 pm83 °FLight rain. Mostly cloudy.12 mph74%29.95 "Hg9 mi
2:52 pm84 °FCloudy.9 mph74%29.89 "Hg10 mi
3:52 pm83 °FMostly cloudy.7 mph74%29.89 "Hg9 mi
4:25 pm84 °FMostly cloudy.9 mph74%29.94 "Hg10 mi
4:52 pm84 °FPartly sunny.8 mph77%29.89 "Hg9 mi
5:12 pm84 °FBroken clouds.9 mph74%29.93 "Hg9 mi
5:52 pm83 °FMore clouds than sun.8 mph74%29.90 "Hg9 mi
6:52 pm82 °FOvercast.7 mph74%29.88 "Hg10 mi
7:52 pm80 °FOvercast.5 mph81%29.89 "Hg10 mi
8:52 pm78 °FPassing clouds.3 mph87%29.90 "Hg10 mi
9:52 pm78 °FPassing clouds.No wind84%29.91 "Hg10 mi
10:52 pm75 °FPassing clouds.6 mph94%29.92 "Hg10 mi
11:52 pm77 °FPartly cloudy.7 mph94%29.93 "Hg8 mi
Weather by CustomWeather, © 2020

See weather overview